Regional Weather Roundup
Issued by NWS Kansas City/Pleasant Hill, MO

Home | Current Version | Previous Version | Graphics & Text | Print | Product List | Glossary Off
Versions: 1 2 3 4 5 6 7 8 9 10 11 12 13 14 15 16 17 18 19 20 21 22 23 24 25 26 27

000
ASUS43 KEAX 261610
RWREAX

WEATHER ROUNDUP FOR EASTERN KANSAS AND NORTHWEST MISSOURI
NATIONAL WEATHER SERVICE KANSAS CITY/PLEASANT HILL MO
1100 AM CDT WED APR 26 2017

KSZ040-057-103>105-MOZ028-029-037-043-261700-
...KANSAS CITY METROPOLITAN AREA...

CITY           SKY/WX    TMP DP  RH WIND       PRES   REMARKS
K.C. INTL      CLOUDY    44  39  82 NW14      29.62R
K.C. DOWNTOWN  CLOUDY    46  39  76 NW12G18   29.63R
LEES SUMMIT    CLOUDY    43  40  89 NW14      29.62R
OLATHE - IXD   CLOUDY    43  38  82 NW16      29.66R
OLATHE - OJC   CLOUDY    42  39  89 NW15      29.64R WCI  34
LAWRENCE       CLOUDY    44  38  79 NW18G24   29.66R

$$

MOZ001>008-011>017-020>025-030>033-038>040-044>046-053-054-261700-
...NORTHERN AND CENTRAL MISSOURI...

CITY           SKY/WX    TMP DP  RH WIND       PRES   REMARKS
ST. JOSEPH     CLOUDY    43  39  86 NW16      29.66R
WHITEMAN AFB   CLOUDY    45  45 100 N9        29.60R FOG
CLINTON        CLOUDY    46  46 100 N10       29.61R FOG
SEDALIA        CLOUDY    48  47  96 NW10      29.62R
WARSAW         NOT AVBL
CHILLICOTHE      N/A     45  41  86 NW12G20   29.60F
KIRKSVILLE     CLOUDY    46  43  89 NW13      29.56S

$$

MOZ041-047>049-056>058-063>065-088>090-097-261700-
...EASTERN AND SOUTHERN MISSOURI...

CITY           SKY/WX    TMP DP  RH WIND       PRES   REMARKS
ST. LOUIS INTL CLOUDY    68  56  65 SW13      29.56R
SPIRIT OF STL  PTSUNNY   64  58  80 SW8       29.56R
COLUMBIA       LGT RAIN  52  51  97 W9        29.57R FOG
JEFFERSON CITY LGT RAIN  56  53  90 NW8       29.56R FOG
ROLLA          TSTM      59  57  93 S17       29.54F FOG
OSAGE BEACH    LGT RAIN  55  54  96 VRB6      29.59R
SPRINGFIELD    LGT RAIN  52  51  97 NW10      29.58R
BRANSON        TSTM      55  55 100 SE8G16    29.54F
JOPLIN         LGT RAIN  47  45  93 N12G20    29.61R
WEST PLAINS    TSTM      58  56  93 SE5       29.62S FOG

$$

IAZ060-094-KSZ022-034>040-054-083-096-NEZ052-066-093-261700-
...KANSAS...SOUTHEAST NEBRASKA AND IOWA...

CITY           SKY/WX    TMP DP  RH WIND       PRES   REMARKS
TOPEKA         CLOUDY    45  38  76 NW12      29.67R
MANHATTAN      CLOUDY    44  34  67 NW12G21   29.70R
EMPORIA        CLOUDY    43  36  76 N15G25    29.67R
CHANUTE        LGT RAIN  44  40  85 N13       29.64R
WICHITA        CLOUDY    44  35  70 N22G30    29.68R
OMAHA          CLOUDY    40  33  76 NW18G25   29.68R WCI  31
LINCOLN        CLOUDY    41  31  67 NW15      29.72R WCI  33
FALLS CITY     CLOUDY    43  33  68 NW16G29   29.66R
LAMONI         CLOUDY    43  39  86 NW16      29.58F
DES MOINES     CLOUDY    45  39  79 NW21      29.56F

$$





USA.gov is the U.S. government's official web portal to all federal, state and local government web resources and services.